Ely, MN

6:27 PM CDT on August 31, 2016 (GMT -0500)
Ely Municipal

Weather History for KELO - May, 2014

Change the Weather History Date:

Sunday, May 18, 2014

  Actual Average Record
Temperature  
Mean Temperature 52 °F -  
Max Temperature 69 °F 59 °F 87 °F (1998)
Min Temperature 35 °F 35 °F 28 °F (2002)
Degree Days  
Heating Degree Days 13    
Growing Degree Days 2 (Base 50)    
Moisture  
Dew Point 34 °F    
Average Humidity 50    
Maximum Humidity 87    
Minimum Humidity 23    
Precipitation  
Precipitation 0.00 in - - ()
Sea Level Pressure  
Sea Level Pressure 29.96 in    
Wind  
Wind Speed 3 mph (WSW)    
Max Wind Speed 12 mph    
Max Gust Speed 20 mph    
Visibility 10 miles    
Events      
Averages and records for this station are not official NWS values.
T = Trace of Precipitation, MM = Missing Value Source: NWS Daily Summary

Daily Weather History Graph

Daily Weather History Graph

Search for Another Location

Airport or City:

Trip Planner

Search our weather history database for the weather conditions in past years. The results will help you decide how hot, cold, wet, or windy it might be!

Date:

Astronomy

May. 18, 2014 Rise Set
Actual Time 5:25 AM CDT 8:42 PM CDT
Civil Twilight 4:48 AM CDT 9:20 PM CDT
Nautical Twilight 3:59 AM CDT 10:09 PM CDT
Astronomical Twilight 2:56 AM CDT 11:12 PM CDT
Moon No Moon Rise 9:18 AM CDT (5/18)
Length of Visible Light 16h 32m
Length of Day
15h 17m
Waning Gibbous, 81% of the Moon is Illuminated
May 18
Waning Gibbous
May 21
Last Quarter
May 28
New
Jun 5
First Quarter
Jun 12
Full

Hourly Weather History & Observations

Time (CDT) Temp. Windchill Dew Point Humidity Pressure Visibility Wind Dir Wind Speed Gust Speed Precip Events Conditions
12:12 AM 39.2 °F - 32.0 °F 75% 29.93 in 10.0 mi Calm Calm - N/A   Clear
12:33 AM 39.2 °F - 32.0 °F 75% 29.93 in 10.0 mi Calm Calm - N/A   Clear
12:53 AM 37.4 °F - 28.4 °F 70% 29.93 in 10.0 mi Calm Calm - N/A   Clear
1:12 AM 35.6 °F - 30.2 °F 81% 29.93 in 10.0 mi Calm Calm - N/A   Clear
1:33 AM 35.6 °F - 30.2 °F 81% 29.93 in 10.0 mi Calm Calm - N/A   Clear
1:53 AM 35.6 °F - 28.4 °F 75% 29.93 in 10.0 mi Calm Calm - N/A   Clear
2:12 AM 35.6 °F - 30.2 °F 81% 29.93 in 10.0 mi Calm Calm - N/A   Scattered Clouds
2:33 AM 35.6 °F 30.7 °F 28.4 °F 75% 29.93 in 10.0 mi SW 5.8 mph - N/A   Clear
2:53 AM 35.6 °F 31.7 °F 30.2 °F 81% 29.93 in 10.0 mi SW 4.6 mph - N/A   Clear
3:12 AM 35.6 °F - 30.2 °F 81% 29.93 in 10.0 mi Calm Calm - N/A   Clear
3:33 AM 39.2 °F 37.0 °F 30.2 °F 70% 29.93 in 10.0 mi SW 3.5 mph - N/A   Clear
3:53 AM 35.6 °F 32.8 °F 30.2 °F 81% 29.94 in 10.0 mi WSW 3.5 mph - N/A   Clear
4:12 AM 37.4 °F - 30.2 °F 75% 29.95 in 10.0 mi Calm Calm - N/A   Clear
4:33 AM 35.6 °F 32.8 °F 32.0 °F 87% 29.96 in 10.0 mi West 3.5 mph - N/A   Scattered Clouds
4:53 AM 39.2 °F - 33.8 °F 81% 29.95 in 10.0 mi Calm Calm - N/A   Scattered Clouds
5:12 AM 41.0 °F 36.4 °F 33.8 °F 76% 29.95 in 10.0 mi South 6.9 mph - N/A   Mostly Cloudy
5:33 AM 41.0 °F 39.0 °F 33.8 °F 76% 29.96 in 10.0 mi South 3.5 mph - N/A   Mostly Cloudy
5:53 AM 41.0 °F - 33.8 °F 76% 29.96 in 10.0 mi Calm Calm - N/A   Scattered Clouds
6:13 AM 42.8 °F - 33.8 °F 70% 29.97 in 10.0 mi Calm Calm - N/A   Scattered Clouds
6:33 AM 42.8 °F - 37.4 °F 81% 29.96 in 10.0 mi Calm Calm - N/A   Scattered Clouds
6:52 AM 46.4 °F - 37.4 °F 71% 29.96 in 10.0 mi Calm Calm - N/A   Scattered Clouds
7:13 AM 44.6 °F - 37.4 °F 76% 29.98 in 10.0 mi Calm Calm - N/A   Scattered Clouds
7:33 AM 46.4 °F - 35.6 °F 66% 29.99 in 10.0 mi Calm Calm - N/A   Scattered Clouds
7:53 AM 48.2 °F - 37.4 °F 66% 29.97 in 10.0 mi Calm Calm - N/A   Mostly Cloudy
8:13 AM 51.8 °F - 37.4 °F 58% 29.97 in 10.0 mi South 9.2 mph - N/A   Mostly Cloudy
8:33 AM 55.4 °F - 37.4 °F 51% 29.96 in 10.0 mi South 6.9 mph - N/A   Scattered Clouds
8:53 AM 55.4 °F - 35.6 °F 47% 29.96 in 10.0 mi South 5.8 mph - N/A   Scattered Clouds
9:12 AM 57.2 °F - 37.4 °F 48% 29.97 in 10.0 mi WSW 3.5 mph - N/A   Scattered Clouds
9:33 AM 57.2 °F - 35.6 °F 44% 29.97 in 10.0 mi SW 3.5 mph - N/A   Scattered Clouds
9:53 AM 60.8 °F - 33.8 °F 36% 29.97 in 10.0 mi WSW 5.8 mph - N/A   Scattered Clouds
10:12 AM 60.8 °F - 33.8 °F 36% 29.97 in 10.0 mi SW 4.6 mph - N/A   Clear
10:33 AM 64.4 °F - 33.8 °F 32% 29.97 in 10.0 mi WSW 6.9 mph - N/A   Clear
10:53 AM 64.4 °F - 32.0 °F 30% 29.97 in 10.0 mi West 9.2 mph 17.3 mph N/A   Clear
11:12 AM 66.2 °F - 30.2 °F 26% 29.96 in 10.0 mi WSW 9.2 mph 16.1 mph N/A   Clear
11:33 AM 64.4 °F - 30.2 °F 28% 29.97 in 10.0 mi WNW 10.4 mph - N/A   Scattered Clouds
11:52 AM 66.2 °F - 32.0 °F 28% 29.96 in 10.0 mi WSW 8.1 mph - N/A   Scattered Clouds
12:13 PM 66.2 °F - 30.2 °F 26% 29.95 in 10.0 mi WNW 10.4 mph 19.6 mph N/A   Scattered Clouds
12:33 PM 66.2 °F - 30.2 °F 26% 29.96 in 10.0 mi West 10.4 mph - N/A   Clear
12:52 PM 69.8 °F - 30.2 °F 23% 29.95 in 10.0 mi WNW 8.1 mph 16.1 mph N/A   Scattered Clouds
1:13 PM 66.2 °F - 30.2 °F 26% 29.96 in 10.0 mi West 11.5 mph 18.4 mph N/A   Scattered Clouds
1:33 PM 64.4 °F - 30.2 °F 28% 29.96 in 10.0 mi West 11.5 mph 17.3 mph N/A   Scattered Clouds
1:52 PM 66.2 °F - 32.0 °F 28% 29.96 in 10.0 mi WNW 8.1 mph - N/A   Scattered Clouds
2:13 PM 66.2 °F - 32.0 °F 28% 29.96 in 10.0 mi WSW 6.9 mph - N/A   Scattered Clouds
2:33 PM 66.2 °F - 32.0 °F 28% 29.96 in 10.0 mi North 3.5 mph 16.1 mph N/A   Scattered Clouds
2:53 PM 64.4 °F - 33.8 °F 32% 29.96 in 10.0 mi North 8.1 mph - N/A   Mostly Cloudy
3:13 PM 66.2 °F - 33.8 °F 30% 29.96 in 10.0 mi NNW 5.8 mph - N/A   Mostly Cloudy
3:33 PM 66.2 °F - 33.8 °F 30% 29.96 in 10.0 mi NW 8.1 mph - N/A   Scattered Clouds
3:53 PM 66.2 °F - 33.8 °F 30% 29.96 in 10.0 mi NNW 6.9 mph - N/A   Scattered Clouds
4:13 PM 64.4 °F - 33.8 °F 32% 29.96 in 10.0 mi NW 4.6 mph - N/A   Scattered Clouds
4:32 PM 66.2 °F - 33.8 °F 30% 29.96 in 10.0 mi NNW 3.5 mph - N/A   Scattered Clouds
4:53 PM 64.4 °F - 32.0 °F 30% 29.97 in 10.0 mi Calm Calm - N/A   Scattered Clouds
5:13 PM 64.4 °F - 33.8 °F 32% 29.97 in 10.0 mi Calm Calm - N/A   Scattered Clouds
5:26 PM 66.2 °F - 33.8 °F 30% 29.97 in 10.0 mi Calm Calm - N/A   Scattered Clouds
5:41 PM 66.2 °F - 33.8 °F 30% 29.96 in 10.0 mi North 2.3 mph - N/A   Scattered Clouds
6:01 PM 64.4 °F - 30.2 °F 28% 29.96 in 10.0 mi ENE 1.2 mph - N/A   Scattered Clouds
6:21 PM 64.4 °F - 33.8 °F 32% 29.96 in 10.0 mi NE 3.5 mph - N/A   Scattered Clouds
6:41 PM 64.4 °F - 35.6 °F 34% 29.96 in 10.0 mi NNE 5.8 mph - N/A   Scattered Clouds
7:01 PM 64.4 °F - 35.6 °F 34% 29.96 in 10.0 mi NNE 4.6 mph - N/A   Scattered Clouds
7:21 PM 62.6 °F - 35.6 °F 37% 29.96 in 10.0 mi NE 3.5 mph - N/A   Scattered Clouds
7:45 PM 62.6 °F - 35.6 °F 37% 29.96 in 10.0 mi East 4.6 mph - N/A   Mostly Cloudy
7:53 PM 62.6 °F - 35.6 °F 37% 29.96 in 10.0 mi East 4.6 mph - N/A   Overcast
8:13 PM 62.6 °F - 35.6 °F 37% 29.97 in 10.0 mi East 5.8 mph - N/A   Overcast
8:32 PM 60.8 °F - 37.4 °F 42% 29.97 in 10.0 mi East 5.8 mph - N/A   Overcast
8:53 PM 60.8 °F - 39.2 °F 45% 29.97 in 10.0 mi Calm Calm - N/A   Overcast
9:12 PM 59.0 °F - 39.2 °F 48% 29.99 in 10.0 mi Calm Calm - N/A   Overcast
9:33 PM 59.0 °F - 39.2 °F 48% 29.99 in 10.0 mi SE 4.6 mph - N/A   Overcast
9:53 PM 59.0 °F - 37.4 °F 45% 29.99 in 10.0 mi East 4.6 mph - N/A   Mostly Cloudy
10:12 PM 55.4 °F - 39.2 °F 54% 29.99 in 10.0 mi ESE 3.5 mph - N/A   Scattered Clouds
10:33 PM 51.8 °F - 39.2 °F 62% 29.99 in 10.0 mi SE 6.9 mph - N/A   Scattered Clouds
10:53 PM 53.6 °F - 39.2 °F 58% 29.99 in 10.0 mi SE 5.8 mph - N/A   Scattered Clouds
11:12 PM 51.8 °F - 39.2 °F 62% 29.99 in 10.0 mi SE 6.9 mph - N/A   Clear
11:33 PM 51.8 °F - 37.4 °F 58% 30.00 in 10.0 mi SSE 5.8 mph - N/A   Clear
11:53 PM 53.6 °F - 35.6 °F 51% 30.00 in 10.0 mi SSE 8.1 mph - N/A   Mostly Cloudy